�N����,����,�g�[���i���ԁj���x,�g�[�����x,��g�[���i���ցj���x,����
 2003/11/01, 0:00,21.4,78,-9.9,-9.9
 2003/11/01, 0:15,21.4,77,-9.9,-9.9
 2003/11/01, 0:30,21.3,77,-9.9,-9.9
 2003/11/01, 0:45,21.2,76,-9.9,-9.9
 2003/11/01, 1:00,21.1,76,-9.9,-9.9
 2003/11/01, 1:15,21,75.5,-9.9,-9.9
 2003/11/01, 1:30,21,75,-9.9,-9.9
 2003/11/01, 1:45,21,74.5,-9.9,-9.9
 2003/11/01, 2:00,21,73,-9.9,-9.9
 2003/11/01, 2:15,21,71.5,-9.9,-9.9
 2003/11/01, 2:30,21,71,-9.9,-9.9
 2003/11/01, 2:45,21,70.5,-9.9,-9.9
 2003/11/01, 3:00,20.9,70,-9.9,-9.9
 2003/11/01, 3:15,20.9,68.5,-9.9,-9.9
 2003/11/01, 3:30,20.9,68,-9.9,-9.9
 2003/11/01, 3:45,20.9,67,-9.9,-9.9
 2003/11/01, 4:00,20.9,67,-9.9,-9.9
 2003/11/01, 4:15,20.8,66,-9.9,-9.9
 2003/11/01, 4:30,20.7,66,-9.9,-9.9
 2003/11/01, 4:45,20.7,66,-9.9,-9.9
 2003/11/01, 5:00,20.6,66,-9.9,-9.9
 2003/11/01, 5:15,20.5,66,-9.9,-9.9
 2003/11/01, 5:30,20.5,66,-9.9,-9.9
 2003/11/01, 5:45,20.5,66,-9.9,-9.9
 2003/11/01, 6:00,20.4,66,-9.9,-9.9
 2003/11/01, 6:15,20.4,67.5,-9.9,-9.9
 2003/11/01, 6:30,20.4,68,-9.9,-9.9
 2003/11/01, 6:45,20.3,67,-9.9,-9.9
 2003/11/01, 7:00,20.4,66,-9.9,-9.9
 2003/11/01, 7:15,20.4,66,-9.9,-9.9
 2003/11/01, 7:30,20.5,66,-9.9,-9.9
 2003/11/01, 7:45,20.8,64.5,-9.9,-9.9
 2003/11/01, 8:00,21.1,64,-9.9,-9.9
 2003/11/01, 8:15,21,63.5,-9.9,-9.9
 2003/11/01, 8:30,20.9,67,-9.9,-9.9
 2003/11/01, 8:45,21.5,66.5,-9.9,-9.9
 2003/11/01, 9:00,21.4,63,-9.9,-9.9
 2003/11/01, 9:15,21.9,61,-9.9,-9.9
 2003/11/01, 9:30,21.9,62,-9.9,-9.9
 2003/11/01, 9:45,21.9,60,-9.9,-9.9
 2003/11/01,10:00,22.4,60,-9.9,-9.9
 2003/11/01,10:15,22.6,58,-9.9,-9.9
 2003/11/01,10:30,22.9,57,-9.9,-9.9
 2003/11/01,10:45,23.1,56.5,-9.9,-9.9
 2003/11/01,11:00,23.5,58,-9.9,-9.9
 2003/11/01,11:15,23.5,59,-9.9,-9.9
 2003/11/01,11:30,23.3,60,-9.9,-9.9
 2003/11/01,11:45,23.4,60,-9.9,-9.9
 2003/11/01,12:00,23.6,60,-9.9,-9.9
 2003/11/01,12:15,23.8,59.5,-9.9,-9.9
 2003/11/01,12:30,24,59,-9.9,-9.9
 2003/11/01,12:45,24.1,59,-9.9,-9.9
 2003/11/01,13:00,24.1,59,-9.9,-9.9
 2003/11/01,13:15,24.2,59,-9.9,-9.9
 2003/11/01,13:30,24.5,59,-9.9,-9.9
 2003/11/01,13:45,24.5,59,-9.9,-9.9
 2003/11/01,14:00,24.7,59,-9.9,-9.9
 2003/11/01,14:15,24.7,59,-9.9,-9.9
 2003/11/01,14:30,24.7,59,-9.9,-9.9
 2003/11/01,14:45,24.8,59,-9.9,-9.9
 2003/11/01,15:00,24.8,59,-9.9,-9.9
 2003/11/01,15:15,24.8,59,-9.9,-9.9
 2003/11/01,15:30,24.8,59,-9.9,-9.9
 2003/11/01,15:45,24.8,59,-9.9,-9.9
 2003/11/01,16:00,24.8,59,-9.9,-9.9
 2003/11/01,16:15,24.7,59,-9.9,-9.9
 2003/11/01,16:30,24.7,59,-9.9,-9.9
 2003/11/01,16:45,24.7,59,-9.9,-9.9
 2003/11/01,17:00,24.6,59,-9.9,-9.9
 2003/11/01,17:15,24.5,59,-9.9,-9.9
 2003/11/01,17:30,24.4,59,-9.9,-9.9
 2003/11/01,17:45,24.4,59,-9.9,-9.9
 2003/11/01,18:00,24.3,60,-9.9,-9.9
 2003/11/01,18:15,24.4,59.5,-9.9,-9.9
 2003/11/01,18:30,24.4,59,-9.9,-9.9
 2003/11/01,18:45,24,55.5,-9.9,-9.9
 2003/11/01,19:00,23.7,54,-9.9,-9.9
 2003/11/01,19:15,23.5,55,-9.9,-9.9
 2003/11/01,19:30,23.3,55,-9.9,-9.9
 2003/11/01,19:45,23.7,56,-9.9,-9.9
 2003/11/01,20:00,24,57,-9.9,-9.9
 2003/11/01,20:15,23.9,56.5,-9.9,-9.9
 2003/11/01,20:30,23.7,58,-9.9,-9.9
 2003/11/01,20:45,24,57,-9.9,-9.9
 2003/11/01,21:00,24.3,57,-9.9,-9.9
 2003/11/01,21:15,24.5,59,-9.9,-9.9
 2003/11/01,21:30,23.7,57,-9.9,-9.9
 2003/11/01,21:45,23.5,56.5,-9.9,-9.9
 2003/11/01,22:00,23.5,57,-9.9,-9.9
 2003/11/01,22:15,23.5,58,-9.9,-9.9
 2003/11/01,22:30,23.4,58,-9.9,-9.9
 2003/11/01,22:45,23.2,58,-9.9,-9.9
 2003/11/01,23:00,22.2,59,-9.9,-9.9
 2003/11/01,23:15,22,60,-9.9,-9.9
 2003/11/01,23:30,21.8,60,-9.9,-9.9
 2003/11/01,23:45,22.6,59,-9.9,-9.9
 2003/11/02, 0:00,22.8,59,-9.9,-9.9
 2003/11/02, 0:15,22.8,59,-9.9,-9.9
 2003/11/02, 0:30,22.8,59,-9.9,-9.9
 2003/11/02, 0:45,22.8,59,-9.9,-9.9
 2003/11/02, 1:00,22.8,59,-9.9,-9.9
 2003/11/02, 1:15,22.7,59,-9.9,-9.9
 2003/11/02, 1:30,22.6,59,-9.9,-9.9
 2003/11/02, 1:45,22.6,59.5,-9.9,-9.9
 2003/11/02, 2:00,22.5,60,-9.9,-9.9
 2003/11/02, 2:15,22.5,60,-9.9,-9.9
 2003/11/02, 2:30,22.4,60,-9.9,-9.9
 2003/11/02, 2:45,22.3,60,-9.9,-9.9
 2003/11/02, 3:00,22.3,60,-9.9,-9.9
 2003/11/02, 3:15,22.2,60,-9.9,-9.9
 2003/11/02, 3:30,22.2,60,-9.9,-9.9
 2003/11/02, 3:45,22,60.5,-9.9,-9.9
 2003/11/02, 4:00,22,61,-9.9,-9.9
 2003/11/02, 4:15,22,61,-9.9,-9.9
 2003/11/02, 4:30,21.9,61,-9.9,-9.9
 2003/11/02, 4:45,21.9,61,-9.9,-9.9
 2003/11/02, 5:00,21.8,61,-9.9,-9.9
 2003/11/02, 5:15,21.7,61,-9.9,-9.9
 2003/11/02, 5:30,21.6,61,-9.9,-9.9
 2003/11/02, 5:45,21.6,61,-9.9,-9.9
 2003/11/02, 6:00,21.5,61,-9.9,-9.9
 2003/11/02, 6:15,21.5,61,-9.9,-9.9
 2003/11/02, 6:30,21.5,61,-9.9,-9.9
 2003/11/02, 6:45,21.4,61,-9.9,-9.9
 2003/11/02, 7:00,21.3,61,-9.9,-9.9
 2003/11/02, 7:15,21.4,61.5,-9.9,-9.9
 2003/11/02, 7:30,21.4,63,-9.9,-9.9
 2003/11/02, 7:45,21.3,62.5,-9.9,-9.9
 2003/11/02, 8:00,21.3,62,-9.9,-9.9
 2003/11/02, 8:15,21.6,62,-9.9,-9.9
 2003/11/02, 8:30,21.8,65,-9.9,-9.9
 2003/11/02, 8:45,22,66.5,-9.9,-9.9
 2003/11/02, 9:00,22.4,67,-9.9,-9.9
 2003/11/02, 9:15,22.5,67.5,-9.9,-9.9
 2003/11/02, 9:30,22.8,69,-9.9,-9.9
 2003/11/02, 9:45,22.7,67,-9.9,-9.9
 2003/11/02,10:00,22.9,66,-9.9,-9.9
 2003/11/02,10:15,22.8,65.5,-9.9,-9.9
 2003/11/02,10:30,22.9,67,-9.9,-9.9
 2003/11/02,10:45,22.8,66,-9.9,-9.9
 2003/11/02,11:00,22.6,65,-9.9,-9.9
 2003/11/02,11:15,22.6,64.5,-9.9,-9.9
 2003/11/02,11:30,22.6,64,-9.9,-9.9
 2003/11/02,11:45,22.5,64,-9.9,-9.9
 2003/11/02,12:00,22.5,64,-9.9,-9.9
 2003/11/02,12:15,22.6,64,-9.9,-9.9
 2003/11/02,12:30,22.7,64,-9.9,-9.9
 2003/11/02,12:45,22.7,64,-9.9,-9.9
 2003/11/02,13:00,22.7,64,-9.9,-9.9
 2003/11/02,13:15,22.7,64,-9.9,-9.9
 2003/11/02,13:30,22.7,64,-9.9,-9.9
 2003/11/02,13:45,22.8,64,-9.9,-9.9
 2003/11/02,14:00,22.8,64,-9.9,-9.9
 2003/11/02,14:15,22.8,64,-9.9,-9.9
 2003/11/02,14:30,22.9,64,-9.9,-9.9
 2003/11/02,14:45,23,63,-9.9,-9.9
 2003/11/02,15:00,23.2,63,-9.9,-9.9
 2003/11/02,15:15,23.5,62.5,-9.9,-9.9
 2003/11/02,15:30,23.4,63,-9.9,-9.9
 2003/11/02,15:45,23.4,63,-9.9,-9.9
 2003/11/02,16:00,23.3,63,-9.9,-9.9
 2003/11/02,16:15,23.2,63.5,-9.9,-9.9
 2003/11/02,16:30,23.2,64,-9.9,-9.9
 2003/11/02,16:45,23.1,64,-9.9,-9.9
 2003/11/02,17:00,23,65,-9.9,-9.9
 2003/11/02,17:15,23,67.5,-9.9,-9.9
 2003/11/02,17:30,23.3,67,-9.9,-9.9
 2003/11/02,17:45,23.4,67,-9.9,-9.9
 2003/11/02,18:00,23.2,67,-9.9,-9.9
 2003/11/02,18:15,23.1,66,-9.9,-9.9
 2003/11/02,18:30,23.1,66,-9.9,-9.9
 2003/11/02,18:45,23,66,-9.9,-9.9
 2003/11/02,19:00,23,66,-9.9,-9.9
 2003/11/02,19:15,23.2,66,-9.9,-9.9
 2003/11/02,19:30,23.8,65,-9.9,-9.9
 2003/11/02,19:45,23.9,65,-9.9,-9.9
 2003/11/02,20:00,23.9,65,-9.9,-9.9
 2003/11/02,20:15,23.9,65,-9.9,-9.9
 2003/11/02,20:30,24,66,-9.9,-9.9
 2003/11/02,20:45,24,65.5,-9.9,-9.9
 2003/11/02,21:00,23.9,66,-9.9,-9.9
 2003/11/02,21:15,23.8,66,-9.9,-9.9
 2003/11/02,21:30,23.7,66,-9.9,-9.9
 2003/11/02,21:45,23.5,66,-9.9,-9.9
 2003/11/02,22:00,23.4,66,-9.9,-9.9
 2003/11/02,22:15,23.2,66.5,-9.9,-9.9
 2003/11/02,22:30,23.1,67,-9.9,-9.9
 2003/11/02,22:45,23.1,67,-9.9,-9.9
 2003/11/02,23:00,23.1,67,-9.9,-9.9
 2003/11/02,23:15,23,67,-9.9,-9.9
 2003/11/02,23:30,23,67,-9.9,-9.9
 2003/11/02,23:45,23,67,-9.9,-9.9
 2003/11/03, 0:00,23,67,-9.9,18.6
 2003/11/03, 0:15,22.9,67,-9.9,18.6
 2003/11/03, 0:30,22.9,67,-9.9,18.7
 2003/11/03, 0:45,22.9,67,-9.9,18.7
 2003/11/03, 1:00,22.8,67,-9.9,18.7
 2003/11/03, 1:15,22.8,67,-9.9,18.7
 2003/11/03, 1:30,22.7,67,-9.9,18.7
 2003/11/03, 1:45,22.7,67,-9.9,18.8
 2003/11/03, 2:00,22.7,67,-9.9,18.8
 2003/11/03, 2:15,22.6,67,-9.9,18.9
 2003/11/03, 2:30,22.6,67,-9.9,18.8
 2003/11/03, 2:45,22.6,67,-9.9,18.9
 2003/11/03, 3:00,22.5,67,-9.9,18.9
 2003/11/03, 3:15,22.5,67,-9.9,19
 2003/11/03, 3:30,22.5,67,-9.9,19
 2003/11/03, 3:45,22.5,67,-9.9,19
 2003/11/03, 4:00,22.4,67,-9.9,19
 2003/11/03, 4:15,22.5,67,-9.9,19
 2003/11/03, 4:30,22.4,67,-9.9,19.1
 2003/11/03, 4:45,22.4,67,-9.9,19.1
 2003/11/03, 5:00,22.3,67,-9.9,19.1
 2003/11/03, 5:15,22.4,67,-9.9,19.1
 2003/11/03, 5:30,22.3,67,-9.9,19.1
 2003/11/03, 5:45,22.3,67,-9.9,19.2
 2003/11/03, 6:00,22.3,67,-9.9,19.2
 2003/11/03, 6:15,22.5,69,-9.9,18.4
 2003/11/03, 6:30,22.5,70,-9.9,18.3
 2003/11/03, 6:45,22.5,69.5,-9.9,18.5
 2003/11/03, 7:00,22.6,71,-9.9,18.4
 2003/11/03, 7:15,22.6,69.5,-9.9,18.5
 2003/11/03, 7:30,22.6,69,-9.9,18.3
 2003/11/03, 7:45,22.6,69.5,-9.9,18.4
 2003/11/03, 8:00,22.8,70,-9.9,18.4
 2003/11/03, 8:15,23,70,-9.9,18.3
 2003/11/03, 8:30,23.2,71,-9.9,18.2
 2003/11/03, 8:45,23.4,70,-9.9,18.1
 2003/11/03, 9:00,23.5,69,-9.9,18.1
 2003/11/03, 9:15,23.4,71,-9.9,18.1
 2003/11/03, 9:30,23.1,74,-9.9,18.3
 2003/11/03, 9:45,23.1,73,-9.9,18.4
 2003/11/03,10:00,23.1,72,-9.9,18.4
 2003/11/03,10:15,23,72,-9.9,18.5
 2003/11/03,10:30,23,72,-9.9,18.5
 2003/11/03,10:45,23,71.5,-9.9,18.4
 2003/11/03,11:00,23,72,-9.9,18.1
 2003/11/03,11:15,23,72,-9.9,18.1
 2003/11/03,11:30,23,72,-9.9,18.2
 2003/11/03,11:45,23,71,-9.9,18.2
 2003/11/03,12:00,23,71,-9.9,18.2
 2003/11/03,12:15,23,71,-9.9,18.3
 2003/11/03,12:30,22.9,71,-9.9,18.6
 2003/11/03,12:45,22.9,71,-9.9,18.6
 2003/11/03,13:00,22.8,71,-9.9,18.6
 2003/11/03,13:15,22.8,71,-9.9,18.6
 2003/11/03,13:30,22.7,71,-9.9,18.7
 2003/11/03,13:45,22.7,70.5,-9.9,18.8
 2003/11/03,14:00,22.6,70,-9.9,18.8
 2003/11/03,14:15,22.6,70,-9.9,18.8
 2003/11/03,14:30,22.6,70,-9.9,18.8
 2003/11/03,14:45,22.6,70,-9.9,18.9
 2003/11/03,15:00,22.6,70,-9.9,18.9
 2003/11/03,15:15,22.5,70,-9.9,18.9
 2003/11/03,15:30,22.5,70,-9.9,19
 2003/11/03,15:45,22.5,70,-9.9,19
 2003/11/03,16:00,22.5,70,-9.9,19
 2003/11/03,16:15,22.6,69,-9.9,19
 2003/11/03,16:30,22.6,70,-9.9,19.1
 2003/11/03,16:45,22.6,71.5,-9.9,19.1
 2003/11/03,17:00,22.8,72,-9.9,18.6
 2003/11/03,17:15,22.8,72.5,-9.9,18.2
 2003/11/03,17:30,22.9,73,-9.9,18.1
 2003/11/03,17:45,23.1,73.5,-9.9,18.1
 2003/11/03,18:00,23.4,75,-9.9,18.2
 2003/11/03,18:15,23.5,75.5,-9.9,18.2
 2003/11/03,18:30,23.6,75,-9.9,18.7
 2003/11/03,18:45,23.6,74,-9.9,18.6
 2003/11/03,19:00,23.6,73,-9.9,18.7
 2003/11/03,19:15,23.6,72,-9.9,18.8
 2003/11/03,19:30,23.7,72,-9.9,18.8
 2003/11/03,19:45,23.6,71,-9.9,18.8
 2003/11/03,20:00,23.7,71,-9.9,18.8
 2003/11/03,20:15,23.8,70.5,-9.9,18.8
 2003/11/03,20:30,23.7,70,-9.9,18.9
 2003/11/03,20:45,23.7,70.5,-9.9,18.8
 2003/11/03,21:00,23.7,70,-9.9,18.6
 2003/11/03,21:15,23.8,70,-9.9,18.6
 2003/11/03,21:30,23.8,70,-9.9,18.7
 2003/11/03,21:45,23.8,70,-9.9,18.7
 2003/11/03,22:00,23.7,70,-9.9,18.7
 2003/11/03,22:15,23.7,70,-9.9,19
 2003/11/03,22:30,23.8,70,-9.9,19
 2003/11/03,22:45,23.8,69.5,-9.9,19
 2003/11/03,23:00,23.7,69,-9.9,18.7
 2003/11/03,23:15,23.6,69,-9.9,18.7
 2003/11/03,23:30,23.5,69,-9.9,18.7
 2003/11/03,23:45,23.4,69,-9.9,18.8
 2003/11/04, 0:00,23.4,69,-9.9,18.8
 2003/11/04, 0:15,23.3,69,-9.9,18.8
 2003/11/04, 0:30,23.2,69,-9.9,18.9
 2003/11/04, 0:45,23.1,69,-9.9,18.9
 2003/11/04, 1:00,23.1,69,-9.9,18.9
 2003/11/04, 1:15,23,69,-9.9,19
 2003/11/04, 1:30,23,69,-9.9,19
 2003/11/04, 1:45,23,69,-9.9,19.2
 2003/11/04, 2:00,23,69,-9.9,19.1
 2003/11/04, 2:15,23,69,-9.9,19.1
 2003/11/04, 2:30,23,69,-9.9,19.1
 2003/11/04, 2:45,23,69,-9.9,19.1
 2003/11/04, 3:00,22.9,70,-9.9,19.2
 2003/11/04, 3:15,22.9,70,-9.9,19.2
 2003/11/04, 3:30,22.8,70,-9.9,19.2
 2003/11/04, 3:45,22.8,70,-9.9,19.1
 2003/11/04, 4:00,22.6,70,-9.9,19.1
 2003/11/04, 4:15,22.6,70,-9.9,19.1
 2003/11/04, 4:30,22.5,70,-9.9,19.1
 2003/11/04, 4:45,22.5,70,-9.9,19.1
 2003/11/04, 5:00,22.6,72,-9.9,18.9
 2003/11/04, 5:15,22.6,71,-9.9,18.8
 2003/11/04, 5:30,22.5,70,-9.9,18.5
 2003/11/04, 5:45,22.5,69.5,-9.9,18.6
 2003/11/04, 6:00,22.3,69,-9.9,18.6
 2003/11/04, 6:15,22.2,69,-9.9,18.6
 2003/11/04, 6:30,22.1,69,-9.9,18.7
 2003/11/04, 6:45,22,69,-9.9,18.7
 2003/11/04, 7:00,22.1,69,-9.9,18.7
 2003/11/04, 7:15,21.9,69,-9.9,18.7
 2003/11/04, 7:30,21.9,72,-9.9,18.7
 2003/11/04, 7:45,21.8,75,-9.9,18.6
 2003/11/04, 8:00,21.7,77,-9.9,18.6
 2003/11/04, 8:15,21.8,76,-9.9,18.6
 2003/11/04, 8:30,21.8,75,-9.9,18.7
 2003/11/04, 8:45,22.1,71,-9.9,18.7
 2003/11/04, 9:00,22.1,70,-9.9,18.7
 2003/11/04, 9:15,22.2,69.5,-9.9,18.7
 2003/11/04, 9:30,22.4,68,-9.9,18.7
 2003/11/04, 9:45,22.6,67,-9.9,18.7
 2003/11/04,10:00,22.6,67,-9.9,18.7
 2003/11/04,10:15,22.9,65.5,-9.9,18.8
 2003/11/04,10:30,22.9,65,-9.9,18.8
 2003/11/04,10:45,23,65,-9.9,18.8
 2003/11/04,11:00,23.2,64,-9.9,18.8
 2003/11/04,11:15,23.4,64,-9.9,18.9
 2003/11/04,11:30,23.5,63,-9.9,18.8
 2003/11/04,11:45,23.6,63,-9.9,18.9
 2003/11/04,12:00,23.8,62,-9.9,18.9
 2003/11/04,12:15,23.9,62,-9.9,18.9
 2003/11/04,12:30,24.1,62,-9.9,18.9
 2003/11/04,12:45,24.1,61,-9.9,18.9
 2003/11/04,13:00,24.4,60,-9.9,19
 2003/11/04,13:15,24.5,60,-9.9,19
 2003/11/04,13:30,24.7,59,-9.9,19
 2003/11/04,13:45,24.7,59,-9.9,19.1
 2003/11/04,14:00,24.7,59,-9.9,19.1
 2003/11/04,14:15,24.8,59,-9.9,19.1
 2003/11/04,14:30,24.7,58,-9.9,19.1
 2003/11/04,14:45,24.7,59,-9.9,19.1
 2003/11/04,15:00,24.7,59,-9.9,19.2
 2003/11/04,15:15,24.6,58,-9.9,19.2
 2003/11/04,15:30,24.6,58,-9.9,19.2
 2003/11/04,15:45,24.5,58,-9.9,19.2
 2003/11/04,16:00,24.4,58,-9.9,19.3
 2003/11/04,16:15,24.4,58,-9.9,19.3
 2003/11/04,16:30,24.2,57,-9.9,19.3
 2003/11/04,16:45,24,57,-9.9,19.3
 2003/11/04,17:00,23.7,57,-9.9,19.3
 2003/11/04,17:15,23.6,57,-9.9,19.4
 2003/11/04,17:30,23.5,57,-9.9,19.4
 2003/11/04,17:45,23.4,57,-9.9,19.5
 2003/11/04,18:00,23.3,58,-9.9,19.4
 2003/11/04,18:15,23.1,58,-9.9,19.5
 2003/11/04,18:30,23,58,-9.9,19.5
 2003/11/04,18:45,22.9,58,-9.9,19.5
 2003/11/04,19:00,22.7,58,-9.9,19.5
 2003/11/04,19:15,22.6,58,-9.9,19.5
 2003/11/04,19:30,22.5,58,-9.9,19.5
 2003/11/04,19:45,22.4,58,-9.9,19.5
 2003/11/04,20:00,22.2,58,-9.9,19.6
 2003/11/04,20:15,22,58.5,-9.9,19.5
 2003/11/04,20:30,21.9,59,-9.9,19.6
 2003/11/04,20:45,21.8,59,-9.9,19.6
 2003/11/04,21:00,21.7,59,-9.9,19.6
 2003/11/04,21:15,21.6,58.5,-9.9,19.6
 2003/11/04,21:30,21.5,59,-9.9,19.6
 2003/11/04,21:45,21.5,58.5,-9.9,19.6
 2003/11/04,22:00,21.4,58,-9.9,18.4
 2003/11/04,22:15,21.5,59,-9.9,18.4
 2003/11/04,22:30,21.6,59,-9.9,18.4
 2003/11/04,22:45,21.5,59.5,-9.9,18.4
 2003/11/04,23:00,21.5,60,-9.9,18.4
 2003/11/04,23:15,21.6,60.5,-9.9,18.3
 2003/11/04,23:30,21.7,61,-9.9,18.3
 2003/11/04,23:45,21.5,61,-9.9,18.3
 2003/11/05, 0:00,21.4,60,-9.9,18.3
 2003/11/05, 0:15,21.3,60,-9.9,18.3
 2003/11/05, 0:30,21.2,60,-9.9,18.3
 2003/11/05, 0:45,21,60,-9.9,18.3
 2003/11/05, 1:00,20.9,59,-9.9,18.3
 2003/11/05, 1:15,20.6,59,-9.9,18.3
 2003/11/05, 1:30,20.5,59,-9.9,18.3
 2003/11/05, 1:45,20.5,59,-9.9,18.3
 2003/11/05, 2:00,20.3,59,-9.9,18.2
 2003/11/05, 2:15,20.1,59,-9.9,18.3
 2003/11/05, 2:30,20,59,-9.9,18.2
 2003/11/05, 2:45,20,59,-9.9,18.2
 2003/11/05, 3:00,19.8,59,-9.9,18.2
 2003/11/05, 3:15,19.6,59,-9.9,18.2
 2003/11/05, 3:30,19.6,59,-9.9,18.1
 2003/11/05, 3:45,19.5,59,-9.9,18.1
 2003/11/05, 4:00,19.4,59,-9.9,18.1
 2003/11/05, 4:15,19.2,59,-9.9,18.1
 2003/11/05, 4:30,19.2,59,-9.9,18
 2003/11/05, 4:45,19,59,-9.9,18
 2003/11/05, 5:00,19,59,-9.9,18
 2003/11/05, 5:15,19,63.5,-9.9,18
 2003/11/05, 5:30,18.8,63,-9.9,18
 2003/11/05, 5:45,18.8,61,-9.9,17.9
 2003/11/05, 6:00,18.6,61,-9.9,17.9
 2003/11/05, 6:15,18.6,60,-9.9,17.9
 2003/11/05, 6:30,18.8,62,-9.9,17.9
 2003/11/05, 6:45,18.9,64,-9.9,17.9
 2003/11/05, 7:00,18.9,64,-9.9,17.8
 2003/11/05, 7:15,19,64.5,-9.9,17.8
 2003/11/05, 7:30,19.2,64,-9.9,17.8
 2003/11/05, 7:45,19.2,63.5,-9.9,17.9
 2003/11/05, 8:00,19.3,63,-9.9,17.9
 2003/11/05, 8:15,19.5,62,-9.9,17.9
 2003/11/05, 8:30,19.7,61,-9.9,17.8
 2003/11/05, 8:45,20.1,59.5,-9.9,17.9
 2003/11/05, 9:00,20,60,-9.9,17.8
 2003/11/05, 9:15,20.1,60,-9.9,17.8
 2003/11/05, 9:30,20.3,59,-9.9,17.7
 2003/11/05, 9:45,20.5,59,-9.9,17.7
 2003/11/05,10:00,20.7,59,-9.9,17.7
 2003/11/05,10:15,20.8,58,-9.9,17.7
 2003/11/05,10:30,20.9,58,-9.9,17.7
 2003/11/05,10:45,21.1,58,-9.9,17.6
 2003/11/05,11:00,21.4,58,-9.9,17.6
 2003/11/05,11:15,21.5,58,-9.9,17.6
 2003/11/05,11:30,21.5,58,-9.9,17.7
 2003/11/05,11:45,21.6,58,-9.9,17.6
 2003/11/05,12:00,21.8,58,-9.9,17.6
 2003/11/05,12:15,21.8,59,-9.9,17.7
 2003/11/05,12:30,21.8,59,-9.9,17.7
 2003/11/05,12:45,22,58,-9.9,17.6
 2003/11/05,13:00,22,58,-9.9,17.7
 2003/11/05,13:15,22,58.5,-9.9,17.7
 2003/11/05,13:30,21.9,59,-9.9,17.7
 2003/11/05,13:45,21.9,59,-9.9,17.7
 2003/11/05,14:00,21.9,59,-9.9,17.8
 2003/11/05,14:15,21.9,59.5,-9.9,17.8
 2003/11/05,14:30,21.9,60,-9.9,17.8
 2003/11/05,14:45,21.9,59.5,-9.9,17.8
 2003/11/05,15:00,21.8,60,-9.9,17.9
 2003/11/05,15:15,21.9,60,-9.9,17.9
 2003/11/05,15:30,21.8,60,-9.9,17.9
 2003/11/05,15:45,21.8,60,-9.9,17.9
 2003/11/05,16:00,21.8,60,-9.9,18
 2003/11/05,16:15,21.7,60,-9.9,18
 2003/11/05,16:30,21.7,60,-9.9,18.1
 2003/11/05,16:45,21.6,61,-9.9,18.1
 2003/11/05,17:00,21.6,61,-9.9,18.1
 2003/11/05,17:15,21.5,61,-9.9,18.1
 2003/11/05,17:30,21.5,61,-9.9,18.2
 2003/11/05,17:45,21.5,61.5,-9.9,18.2
 2003/11/05,18:00,21.5,62,-9.9,18.3
 2003/11/05,18:15,21.5,62,-9.9,18.3
 2003/11/05,18:30,21.4,62,-9.9,18.3
 2003/11/05,18:45,21.4,62,-9.9,18.4
 2003/11/05,19:00,21.3,62,-9.9,18.3
 2003/11/05,19:15,21.3,62,-9.9,18.4
 2003/11/05,19:30,21.3,62,-9.9,18.4
 2003/11/05,19:45,21.3,62,-9.9,18.5
 2003/11/05,20:00,21.3,62,-9.9,18.5
 2003/11/05,20:15,21.5,62,-9.9,18.5
 2003/11/05,20:30,21.6,62,-9.9,18.5
 2003/11/05,20:45,21.5,63,-9.9,18.6
 2003/11/05,21:00,21.4,63,-9.9,18.6
 2003/11/05,21:15,21.4,63,-9.9,18.6
 2003/11/05,21:30,21.4,63,-9.9,18.7
 2003/11/05,21:45,21.5,63,-9.9,18.7
 2003/11/05,22:00,21.5,63,-9.9,18.8
 2003/11/05,22:15,21.7,63.5,-9.9,18.8
 2003/11/05,22:30,21.7,64,-9.9,18.8
 2003/11/05,22:45,21.9,64,-9.9,18.8
 2003/11/05,23:00,21.8,64,-9.9,18.8
 2003/11/05,23:15,21.9,64,-9.9,18.9
 2003/11/05,23:30,22,64,-9.9,18.8
 2003/11/05,23:45,21.9,64,-9.9,18.9
 2003/11/06, 0:00,21.9,64,-9.9,18.9
 2003/11/06, 0:15,21.8,64,-9.9,18.8
 2003/11/06, 0:30,21.8,64,-9.9,18.7
 2003/11/06, 0:45,21.8,64,-9.9,18.7
 2003/11/06, 1:00,21.8,64,-9.9,18.9
 2003/11/06, 1:15,21.8,64,-9.9,18.5
 2003/11/06, 1:30,21.8,64,-9.9,18.5
 2003/11/06, 1:45,21.8,64,-9.9,18.6
 2003/11/06, 2:00,21.7,64,-9.9,18.6
 2003/11/06, 2:15,21.7,64,-9.9,18.6
 2003/11/06, 2:30,21.6,64,-9.9,18.7
 2003/11/06, 2:45,21.6,64,-9.9,18.6
 2003/11/06, 3:00,21.5,64,-9.9,18.7
 2003/11/06, 3:15,21.5,64,-9.9,18.7
 2003/11/06, 3:30,21.5,64,-9.9,18.7
 2003/11/06, 3:45,21.5,64,-9.9,18.7
 2003/11/06, 4:00,21.4,64,-9.9,18.7
 2003/11/06, 4:15,21.3,64,-9.9,18.8
 2003/11/06, 4:30,21.3,64,-9.9,18.8
 2003/11/06, 4:45,21.3,64.5,-9.9,18.6
 2003/11/06, 5:00,21.3,64,-9.9,18.5
 2003/11/06, 5:15,21.4,65,-9.9,18.6
 2003/11/06, 5:30,21.4,66,-9.9,18.5
 2003/11/06, 5:45,21.5,69,-9.9,18.5
 2003/11/06, 6:00,21.6,71,-9.9,18.5
 2003/11/06, 6:15,21.6,69.5,-9.9,18.4
 2003/11/06, 6:30,21.6,68,-9.9,18.4
 2003/11/06, 6:45,21.6,71.5,-9.9,18.5
 2003/11/06, 7:00,21.1,80,-9.9,18.4
 2003/11/06, 7:15,20.9,82.5,-9.9,18.4
 2003/11/06, 7:30,20.7,83,-9.9,18.4
 2003/11/06, 7:45,20.6,83,-9.9,18.4
 2003/11/06, 8:00,20.6,83,-9.9,18.4
 2003/11/06, 8:15,20.6,82,-9.9,18.5
 2003/11/06, 8:30,20.8,83,-9.9,18.5
 2003/11/06, 8:45,20.9,84,-9.9,18.5
 2003/11/06, 9:00,21,83,-9.9,18.5
 2003/11/06, 9:15,21,83,-9.9,18.5
 2003/11/06, 9:30,21.2,81,-9.9,18.5
 2003/11/06, 9:45,21.3,79,-9.9,18.6
 2003/11/06,10:00,21.6,77,-9.9,18.5
 2003/11/06,10:15,21.5,77,-9.9,18.6
 2003/11/06,10:30,21.5,77,-9.9,18.6
 2003/11/06,10:45,21.4,77.5,-9.9,18.6
 2003/11/06,11:00,21.5,77,-9.9,18.7
 2003/11/06,11:15,22,71,-9.9,18.7
 2003/11/06,11:30,22.2,70,-9.9,18.7
 2003/11/06,11:45,22.4,69,-9.9,18.7
 2003/11/06,12:00,22.8,68,-9.9,18.7
 2003/11/06,12:15,22.8,68,-9.9,18.7
 2003/11/06,12:30,23,67,-9.9,18.8
 2003/11/06,12:45,23.1,67,-9.9,18.8
 2003/11/06,13:00,23.1,67,-9.9,18.8
 2003/11/06,13:15,23,67.5,-9.9,18.8
 2003/11/06,13:30,23.2,67,-9.9,18.8
 2003/11/06,13:45,23.5,66.5,-9.9,18.9
 2003/11/06,14:00,23.8,66,-9.9,18.9
 2003/11/06,14:15,23.8,66,-9.9,19
 2003/11/06,14:30,23.5,66,-9.9,19
 2003/11/06,14:45,23.4,67,-9.9,19
 2003/11/06,15:00,23.4,67,-9.9,19.1
 2003/11/06,15:15,23.4,67,-9.9,19.1
 2003/11/06,15:30,23.4,67,-9.9,19.2
 2003/11/06,15:45,23.4,67.5,-9.9,19.2
 2003/11/06,16:00,23.3,68,-9.9,19.2
 2003/11/06,16:15,23.2,68,-9.9,19.2
 2003/11/06,16:30,23.2,69,-9.9,19.3
 2003/11/06,16:45,23.2,69.5,-9.9,19.3
 2003/11/06,17:00,23.2,70,-9.9,19.3
 2003/11/06,17:15,23.2,69,-9.9,19.2
 2003/11/06,17:30,23.3,69,-9.9,19
 2003/11/06,17:45,23.2,70.5,-9.9,19.1
 2003/11/06,18:00,23.3,69,-9.9,19.1
 2003/11/06,18:15,23.4,68.5,-9.9,19.1
 2003/11/06,18:30,23.4,69,-9.9,19.2
 2003/11/06,18:45,23.3,70,-9.9,19.3
 2003/11/06,19:00,23.4,70,-9.9,19.3
 2003/11/06,19:15,23.4,69.5,-9.9,19.3
 2003/11/06,19:30,23.4,69,-9.9,19.4
 2003/11/06,19:45,23.4,69,-9.9,19.4
 2003/11/06,20:00,23.4,69,-9.9,19.4
 2003/11/06,20:15,23.4,68.5,-9.9,19.2
 2003/11/06,20:30,23.4,68,-9.9,19.1
 2003/11/06,20:45,23.4,68,-9.9,19.1
 2003/11/06,21:00,23.4,68,-9.9,19.2
 2003/11/06,21:15,23.5,67.5,-9.9,19.1
 2003/11/06,21:30,23.6,67,-9.9,19.2
 2003/11/06,21:45,23.5,68,-9.9,19.2
 2003/11/06,22:00,23.4,68,-9.9,19.2
 2003/11/06,22:15,23.4,68,-9.9,19.3
 2003/11/06,22:30,23.3,68,-9.9,19.3
 2003/11/06,22:45,23.2,68.5,-9.9,19.4
 2003/11/06,23:00,23.1,68,-9.9,19.4
 2003/11/06,23:15,23.1,68,-9.9,19.4
 2003/11/06,23:30,23.1,68,-9.9,19.4
 2003/11/06,23:45,23,68,-9.9,19.5
 2003/11/07, 0:00,23,68,-9.9,19
 2003/11/07, 0:15,23,67.5,-9.9,18.9
 2003/11/07, 0:30,23,67,-9.9,18.7
 2003/11/07, 0:45,22.9,67,-9.9,18.7
 2003/11/07, 1:00,22.7,67,-9.9,18.7
 2003/11/07, 1:15,22.6,67,-9.9,18.8
 2003/11/07, 1:30,22.6,67,-9.9,18.8
 2003/11/07, 1:45,22.5,67,-9.9,18.8
 2003/11/07, 2:00,22.3,67,-9.9,18.8
 2003/11/07, 2:15,22.2,67,-9.9,18.9
 2003/11/07, 2:30,22.2,67,-9.9,18.9
 2003/11/07, 2:45,22.1,67,-9.9,18.9
 2003/11/07, 3:00,22,67,-9.9,18.9
 2003/11/07, 3:15,22,67,-9.9,19
 2003/11/07, 3:30,21.9,67,-9.9,19
 2003/11/07, 3:45,21.8,67,-9.9,19
 2003/11/07, 4:00,21.8,67,-9.9,19
 2003/11/07, 4:15,21.7,67,-9.9,19
 2003/11/07, 4:30,21.6,67,-9.9,19
 2003/11/07, 4:45,21.5,67,-9.9,19
 2003/11/07, 5:00,21.5,67,-9.9,19.1
 2003/11/07, 5:15,21.4,67,-9.9,19.1
 2003/11/07, 5:30,21.3,67,-9.9,19.1
 2003/11/07, 5:45,21.2,67,-9.9,19.1
 2003/11/07, 6:00,21.2,67,-9.9,19.1
 2003/11/07, 6:15,21.2,67,-9.9,18.7
 2003/11/07, 6:30,21.3,68,-9.9,18.5
 2003/11/07, 6:45,21.3,68,-9.9,18.5
 2003/11/07, 7:00,21.3,68,-9.9,18.5
 2003/11/07, 7:15,21.4,68,-9.9,18.5
 2003/11/07, 7:30,21.5,68,-9.9,18.5
 2003/11/07, 7:45,21.8,67,-9.9,18.5
 2003/11/07, 8:00,21.8,66,-9.9,18.5
 2003/11/07, 8:15,22,66,-9.9,18.5
 2003/11/07, 8:30,22.1,66,-9.9,18.5
 2003/11/07, 8:45,22.4,65,-9.9,18.5
 2003/11/07, 9:00,22.6,64,-9.9,18.4
 2003/11/07, 9:15,22.9,63.5,-9.9,18.5
 2003/11/07, 9:30,23,63,-9.9,18.5
 2003/11/07, 9:45,23.1,62.5,-9.9,18.5
 2003/11/07,10:00,23.4,62,-9.9,18.5
 2003/11/07,10:15,23.6,61.5,-9.9,18.5
 2003/11/07,10:30,23.8,61,-9.9,18.5
 2003/11/07,10:45,24,60.5,-9.9,18.5
 2003/11/07,11:00,24.3,60,-9.9,18.6
 2003/11/07,11:15,24.4,60,-9.9,18.5
 2003/11/07,11:30,24.5,60,-9.9,18.6
 2003/11/07,11:45,24.8,59.5,-9.9,18.6
 2003/11/07,12:00,24.9,60,-9.9,18.6
 2003/11/07,12:15,25.1,59,-9.9,18.6
 2003/11/07,12:30,25.3,59,-9.9,18.7
 2003/11/07,12:45,25.4,59,-9.9,18.7
 2003/11/07,13:00,25.3,59,-9.9,18.8
 2003/11/07,13:15,25.1,60,-9.9,18.8
 2003/11/07,13:30,25.1,60,-9.9,18.8
 2003/11/07,13:45,25.4,60,-9.9,18.8
 2003/11/07,14:00,25.4,60,-9.9,18.9
 2003/11/07,14:15,25.5,60,-9.9,18.9
 2003/11/07,14:30,25.5,60,-9.9,18.9
 2003/11/07,14:45,25.6,60,-9.9,18.9
 2003/11/07,15:00,25.7,60,-9.9,19
 2003/11/07,15:15,25.7,55,-9.9,19
 2003/11/07,15:30,25.6,57,-9.9,19
 2003/11/07,15:45,25.2,58.5,-9.9,19
 2003/11/07,16:00,25.2,60,-9.9,19.1
 2003/11/07,16:15,25.1,60.5,-9.9,19.1
 2003/11/07,16:30,25.1,61,-9.9,19.2
 2003/11/07,16:45,25,61,-9.9,19.2
 2003/11/07,17:00,25,61,-9.9,19.3
 2003/11/07,17:15,25,61.5,-9.9,19.3
 2003/11/07,17:30,24.9,62,-9.9,19.3
 2003/11/07,17:45,24.9,62,-9.9,19.4